Regional Weather Roundup
Issued by NWS Albany, NY

Home | Current Version | Previous Version | Text Only | Print | Product List | Glossary On
Versions: 1 2 3 4 5 6 7 8 9 10 11 12 13 14 15 16 17 18 19 20 21 22 23 24 25 26 27 28 29 30 31 32 33 34 35 36 37 38 39 40 41 42 43 44 45 46 47 48 49 50
000
ASUS41 KALY 242210
RWRALY

NEW YORK STATE HOURLY WEATHER ROUNDUP
NATIONAL WEATHER SERVICE ALBANY NY
600 PM EDT THU JUL 24 2014

NOTE: "FAIR" INDICATES FEW OR NO CLOUDS BELOW 12,000 FEET WITH NO
SIGNIFICANT WEATHER AND/OR NO OBSTRUCTIONS TO VISIBILITY.

NYZ032-033-038>043-046>054-057>066-NYZ062>081-242300-
EAST


CITY           SKY/WX    TMP DP  RH WIND       PRES   REMARKS
ALBANY         PTSUNNY   77  55  46 NW10      29.87S
GLENS FALLS    MOSUNNY   74  55  51 E12       29.87S
POUGHKEEPSIE   SUNNY     78  56  46 N10       29.85S
NEWBURGH       PTSUNNY   77  59  53 NE12      29.88S
MONTGOMERY     PTSUNNY   77  59  53 N6        29.87S
WHITE PLAINS   MOSUNNY   77  55  46 NE12      29.85S
ISLIP          PTSUNNY   80  58  46 N10       29.81F
NEW YORK CITY  NOT AVBL
CENTRAL PARK   PTSUNNY   78  57  48 NE9       29.86F
$$

NYZ005>009-017-018-044>046-055-056-242300-
CENTRAL


CITY           SKY/WX    TMP DP  RH WIND       PRES   REMARKS
FULTON         SUNNY     69  51  52 NW9       29.98F
SYRACUSE       MOSUNNY   72  47  40 NW13      29.97F
ROME           MOSUNNY   71  53  52 W14       29.94S
ELMIRA         SUNNY     70  50  49 NE14      29.98R
BINGHAMTON     SUNNY     66  49  54 N12       29.98S
MONTICELLO     MOSUNNY   70  52  52 N12       29.93F
$$

NYZ026>034-041>043-242300-
NORTH


CITY           SKY/WX    TMP DP  RH WIND       PRES   REMARKS
WATERTOWN      SUNNY     72  51  47 W10       29.96S
FORT DRUM      NOT AVBL
MASSENA        SUNNY     71  51  49 W7        29.94F
SARANAC LAKE   SUNNY     66  47  50 NW8       29.94F
PLATTSBURGH    SUNNY     72  50  45 NW10      29.90F
$$

NYZ001>004-010>016-019>021-242300-
WEST


CITY           SKY/WX    TMP DP  RH WIND       PRES   REMARKS
NIAGARA FALLS  SUNNY     72  46  39 NE8       30.01F
BUFFALO        MOSUNNY   72  45  37 N7        30.01F
DUNKIRK        SUNNY     70  45  40 N8        30.03F
JAMESTOWN      SUNNY     64  48  55 N9        30.05S
WELLSVILLE     SUNNY     68  47  46 N8        30.04S
ROCHESTER      MOSUNNY   71  48  43 NW9       30.00F
PENN YAN       SUNNY     69  45  41 NW10G16   30.01S
$$

             KEY
       WCI = WIND CHILL INDEX
       VSB = VISIBILITY
       HX  = HEAT INDEX
$$


USA.gov is the U.S. government's official web portal to all federal, state and local government web resources and services.